Lid_Strength_Index
9 8 8 8 8 8 7 6 6 7 7 8 8 9 10 9 10 10 11 11 12 12 12 12 12 12 12 13 13 14 14 13
10 9 9 9 9 9 9 9 9 10 11 12 10 11 11 10 11 12 12 12 12 12 13 13 14 14 13 14 14 14 14 14
11 11 11 10 10 10 11 12 12 12 12 12 12 13 12 13 13 13 13 13 13 13 14 15 15 15 14 15 14 15 15 14
12 11 11 11 12 12 12 12 12 12 13 13 14 14 13 13 13 13 14 14 14 15 16 16 15 15 15 15 15 15 15 15
12 12 12 12 12 13 13 12 13 13 13 14 14 14 14 14 14 14 15 15 16 16 16 16 16 15 15 15 15 15 15 15
12 12 12 13 13 13 13 13 13 13 13 14 15 14 14 15 15 15 16 17 17 17 17 17 16 14 15 15 15 16 16 15
11 11 12 12 12 12 13 13 13 14 15 15 15 15 16 16 16 17 17 17 17 17 17 17 16 13 12 13 15 16 16 16
10 10 11 11 11 12 13 14 15 15 15 15 16 16 16 16 17 17 17 17 18 18 17 17 17 13 13 13 15 15 16 15
9 10 10 11 12 12 13 14 15 15 15 16 16 16 17 18 18 18 18 18 18 18 17 17 17 14 14 13 15 16 15 15
8 9 10 11 11 13 14 14 15 15 15 16 17 18 19 19 19 18 19 19 19 18 20 20 20 15 14 14 16 16 16 15
8 9 10 11 12 13 14 15 15 15 16 17 18 19 19 18 19 19 19 18 18 18 20 21 23 16 15 15 17 20 17 17
9 10 10 11 12 13 14 15 14 17 18 19 19 19 19 20 20 21 21 20 22 21 20 21 21 20 15 15 17 18 19 19
10 11 11 12 13 14 15 15 17 18 19 20 20 19 20 21 22 22 22 22 21 21 21 20 21 18 17 16 15 15 22 20
10 12 13 13 12 14 15 17 18 19 21 22 21 21 22 22 22 22 22 20 21 21 22 22 20 21 18 17 16 15 17 17
15 15 15 14 13 13 17 18 19 21 21 21 22 22 21 20 21 21 21 22 21 22 22 22 22 22 21 19 20 17 17 16
15 15 16 17 17 18 19 19 20 21 21 21 21 21 21 21 21 21 21 21 22 22 23 25 26 22 17 17 18 17 16 15
18 18 19 19 19 19 19 18 20 21 21 21 21 22 22 22 24 21 20 19 19 19 20 22 19 17 16 16 15 14 14 21
19 19 20 20 21 21 20 19 19 20 21 21 22 22 23 24 24 24 24 22 21 21 20 19 19 18 17 15 15 16 17 26
20 21 21 21 22 22 20 19 19 20 21 22 22 23 25 25 26 26 26 26 26 24 21 20 20 18 17 16 19 26 23 28
20 21 21 22 24 24 22 21 22 22 23 23 24 25 25 26 27 27 27 27 28 28 25 24 20 18 18 18 28 29 28 27